COSMOS 1275 DEB, 42197

Orbit data source: Space-Track

COSMOS 1275 DEB, 42197 is space debris in LEO originally from a launch on Thu, 04 Jun 1981 UTC launched from the Plesetsk Missile And Space Complex (PKMTR). Debris objects in space refer to the collection of defunct objects orbiting the Earth. Examples of debris include non-operational satellites, rocket bodies, and fragments generated from explosions, collisions, or faulty payload assembly.

Loading next visibility...
Identifier
42197, 1981-053TM
Orbit
LEO
Country
Flag of CISCIS
Related business
Manufacturer
Unknown
Mission
Spacecraft
Bus & Motor
Unknown
Mass
Unknown
Launch date (UTC)
1981-06-04 (44 years ago)
Launch vehicle
Unknown
Launch site
Plesetsk Missile And Space Complex (PKMTR)
Object type
Payload
Rocket body
Debris
Shape & HBR
Unknown
Radar Cross Section
Small (<0.1 m²)

Expand to show TLE details & history
Last TLE update: 20 hours ago

TLE from 20 hours ago
0 COSMOS 1275 DEB
1 42197U 81053TM  25259.19489087  .00000854  00000-0  90332-3 0  9996
2 42197  82.8471 222.9887 0113359 289.5867  69.3077 13.70752759589729
Epoch: 2025-09-16T04:40Z
TLE epoch observation values (Epoch: 2025-09-16T04:40:38.571Z)
Latitude
0.00005°
Longitude
157.43931°
Altitude
971.049 km
Speed
7.38 km/s
True Right ascension
14h 51m 57s
True Declination
0° 00' 00"
Sunlit
Object was in daylight at epoch
Visualization orbit readout
Latitude
Unknown
Longitude
Unknown
Altitude
Unknown
Speed
Unknown
Apparent Right ascension
Unknown
Apparent Declination
Unknown
Sunlit
N/A
Visualization observer readout
Local Sidereal Time
17:38:40
Azimuth
Unknown
Elevation
Unknown
Doppler factor
Unknown
Orbital elements
Apogee altitude
1,077.598 km
Perigee altitude
910.457 km
Semi-major axis
7,372.165 km
Eccentricity
0.01134
Inclination
82.8471°
RAAN
222.9887°
Arg. of periapsis
289.5867°
True anomaly
70.52892°
Mean anomaly
69.3077°
Eccentric anomaly
69.91771°
Mean motion
3.42887 °/min
Orbital period
104.99 mins
BSTAR
0.00090332
Loading maneuver chart data...
Computing Atmospheric mass density...
Loading historical data...
Loading historical data...
Loading historical data...
Loading historical data...
Loading historical data...
Loading historical data...
Loading historical data...

Documentation

Showing up to 5 results
|